Powrót do katalogu

STARLINK-36583

AktywnyŁącznośćSSO
NORAD 67545·PAYLOAD·🇺🇸 United States

Wystrzelony Jan 22, 2026 z Vandenberg Space Force Base

Loading…

Następne Przeloty (najbliższe 24 godziny)

TLE

ŚwieżeSource: CelesTrak SupGP

Epoka: Sep 14, 2026, 21:06 UTC

1 67545C 26014P   26257.87965278 -.00032667  00000+0 -10144-2 0  2578
2 67545  97.2847 143.3668 0001521  92.5867 126.7638 15.33443404    18

Śledź STARLINK-36583 w czasie rzeczywistym z AllMySat

Download on the App Store